Regional Weather Roundup
Issued by NWS Goodland, KS

Home | Current Version | Previous Version | Graphics & Text | Print | Product List | Glossary On
Versions: 1 2 3 4 5 6 7 8 9 10 11 12 13 14 15 16 17 18 19 20 21 22 23 24 25 26 27 28 29 30 31 32 33 34 35 36 37 38 39 40 41 42 43 44 45 46 47 48 49 50
000
ASUS43 KGLD 220459
RWRGLD

GOODLAND FORECAST AREA HOURLY WEATHER ROUNDUP
NATIONAL WEATHER SERVICE GOODLAND KS
1100 PM MDT MON JUL 21 2014

...OFFICIAL OBSERVATIONS...

CITY           SKY/WX    TMP DP  RH WIND       PRES   REMARKS
GOODLAND KS    CLEAR     71  63  75 S16       30.10R
HILL CITY KS   CLOUDY    81  62  52 W10       29.97S
IMPERIAL NEB   CLEAR     79  60  52 S6        30.04S
MCCOOK NEB     PTCLDY    76  63  64 S7        30.02R
AKRON CO       PTCLDY    76  54  46 S13G24    30.12S
BURLINGTON CO  CLEAR     73  60  63 S13       30.13R
LIMON CO       CLEAR     66  46  48 SE3       30.21R
$$

...UNOFFICIAL OBSERVATIONS...

CITY           SKY/WX    TMP DP  RH WIND       PRES   REMARKS
COLBY KS       CLEAR     79  63  57 S17G23    30.07S
GOVE KS          N/A     78  32  18 MISG        N/A
NORTON KS      CLEAR     79  57  47 SW10G17   29.98S
SHARON SPRINGS   N/A     71  65  81 S10         N/A
KIT CARSON CO    N/A     74  59  59 N12         N/A
YUMA CO          N/A     70  59  67 SE5G12      N/A
$$


USA.gov is the U.S. government's official web portal to all federal, state and local government web resources and services.